This demonstration page uses our WeatherBlox Daily Observations layout. Learn more.

41.55636, -103.73856

Hourly Observations for July 5, 2020

Temp ( °F °C ) Dew Point ( °F °C ) Humidity (%) Winds ( mph kmh ) Pressure ( in mb ) Visibility ( mi km ) Precip ( " mm )
12:58 am 00:58 Clear 86 29.9 43 6.2 22 22 S 15 24 29.9 1012 10 16.0934 0 0
1:58 am 01:58 Mostly Clear 83 28.3 46 7.5 27 27 S 18 30 29.91 1013 10 16.0934 0 0
2:58 am 02:58 Clear 76 24.2 48 9 38 38 SW 14 22 29.96 1014 10 16.0934 0 0
3:58 am 03:58 Clear 71 21.8 48 8.7 43 43 SSW 10 17 29.96 1015 10 16.0934 0 0
4:58 am 04:58 Clear 69 20.3 48 9.1 49 49 SW 12 19 29.96 1015 10 16.0934 0 0
5:58 am 05:58 Clear 67 19.4 49 9.3 52 52 W 5 7 29.98 1015 10 16.0934 0 0
6:58 am 06:58 Clear 66 18.9 50 9.8 56 56 Calm 29.95 1014 10 16.0934 0 0
7:58 am 07:58 Clear 63 17 50 10.2 64 64 SSW 9 15 29.96 1014 10 16.0934 0 0
8:58 am 08:58 Clear 62 16.8 51 10.3 66 66 WSW 5 7 29.95 1014 10 16.0934 0 0
9:58 am 09:58 Mostly Cloudy 62 16.9 52 10.9 68 68 WSW 3 6 29.93 1014 10 16.0934 0 0
10:58 am 10:58 Clear 64 17.5 51 10.8 65 65 Calm 29.93 1014 10 16.0934 0 0
11:58 am 11:58 Sunny 62 16.7 52 11.2 70 70 SW 8 13 29.94 1014 10 16.0934 0 0
12:58 pm 12:58 Sunny 67 19.4 52 10.9 58 58 SSW 16 26 29.93 1014 10 16.0934 0 0
1:58 pm 13:58 Sunny 73 23 51 10.7 46 46 SSW 17 28 29.92 1013 10 16.0934 0 0
2:58 pm 14:58 Sunny 80 26.9 48 8.7 32 32 SSW 22 35 29.92 1013 10 16.0934 0 0
3:58 pm 15:58 Sunny 84 29 46 7.8 26 26 SSW 23 37 29.92 1013 10 16.0934 0 0
4:58 pm 16:58 Sunny 87 30.6 44 6.9 23 23 SSW 17 28 29.92 1013 10 16.0934 0 0
5:58 pm 17:58 Sunny 90 32.3 43 6.2 19 19 S 17 28 29.91 1013 10 16.0934 0 0
6:58 pm 18:58 Sunny 92 33.2 43 6 18 18 S 14 22 29.9 1013 10 16.0934 0 0
7:58 pm 19:58 Sunny 92 33.1 40 4.4 16 16 S 20 31 29.89 1012 10 16.0934 0 0
8:58 pm 20:58 Sunny 93 33.9 37 2.9 14 14 SSW 14 22 29.87 1011 10 16.0934 0 0
9:58 pm 21:58 Sunny 90 32.1 36 2.2 15 15 S 17 28 29.85 1011 10 16.0934 0 0
10:58 pm 22:58 Mostly Cloudy 88 31.2 36 2.1 16 16 S 15 24 29.86 1011 10 16.0934 0 0
11:58 pm 23:58 Windy with Rain Showers Likely 73 22.6 48 8.8 41 41 WNW 36 57 29.95 1014 10 16.0934 0 0

Powered by AerisWeather